Silver Bay, MN

5:37 PM CDT on August 17, 2017 (GMT -0500)
Silver Bay Municipal

Weather History for KBFW - August, 2012

Change the Weather History Date:

Thursday, August 2, 2012

  Actual Average Record
Temperature  
Mean Temperature 74 °F -  
Max Temperature 84 °F 72 °F 89 °F (1997)
Min Temperature 64 °F 46 °F -54 °F (2001)
Cooling Degree Days 9    
Growing Degree Days 24 (Base 50)    
Moisture  
Dew Point 54 °F    
Average Humidity 57    
Maximum Humidity 88    
Minimum Humidity 26    
Precipitation  
Precipitation 0.00 in - - ()
Sea Level Pressure  
Sea Level Pressure 29.81 in    
Wind  
Wind Speed 5 mph (NNW)    
Max Wind Speed 12 mph    
Max Gust Speed 17 mph    
Visibility 10 miles    
Events      
Averages and records for this station are not official NWS values.
T = Trace of Precipitation, MM = Missing Value Source: NWS Daily Summary

Daily Weather History Graph

Daily Weather History Graph

Search for Another Location

Airport or City:

Trip Planner

Search our weather history database for the weather conditions in past years. The results will help you decide how hot, cold, wet, or windy it might be!

Date:

Astronomy

Aug. 02, 2012 Rise Set
Actual Time 5:46 AM CDT 8:36 PM CDT
Civil Twilight 5:10 AM CDT 9:12 PM CDT
Nautical Twilight 4:25 AM CDT 9:57 PM CDT
Astronomical Twilight 3:31 AM CDT 10:50 PM CDT
Moon 8:33 PM CDT (8/2) 6:30 AM CDT (8/2)
Length of Visible Light 16h 01m
Length of Day
14h 50m
Full, 100% of the Moon is Illuminated
Aug 2
Full
Aug 9
Last Quarter
Aug 17
New
Aug 24
First Quarter
Aug 31
Full

Hourly Weather History & Observations

Time (CDT) Temp. Heat Index Dew Point Humidity Pressure Visibility Wind Dir Wind Speed Gust Speed Precip Events Conditions
12:13 AM 69.8 °F - 57.2 °F 64% 29.78 in 10.0 mi WNW 4.6 mph - N/A   Clear
12:33 AM 69.8 °F - 57.2 °F 64% 29.79 in 10.0 mi WNW 4.6 mph - N/A   Clear
12:53 AM 69.8 °F - 55.4 °F 60% 29.79 in 10.0 mi WNW 5.8 mph - N/A   Clear
1:13 AM 69.8 °F - 57.2 °F 64% 29.79 in 10.0 mi NW 4.6 mph - N/A   Clear
1:33 AM 69.8 °F - 57.2 °F 64% 29.78 in 10.0 mi NW 4.6 mph - N/A   Clear
1:54 AM 69.8 °F - 57.2 °F 64% 29.77 in 10.0 mi WNW 8.1 mph - N/A   Clear
2:13 AM 68.0 °F - 57.2 °F 68% 29.77 in 10.0 mi NW 4.6 mph - N/A   Clear
2:33 AM 66.2 °F - 57.2 °F 73% 29.77 in 10.0 mi WNW 5.8 mph - N/A   Clear
2:53 AM 66.2 °F - 57.2 °F 73% 29.77 in 10.0 mi NW 5.8 mph - N/A   Clear
3:13 AM 66.2 °F - 57.2 °F 73% 29.77 in 10.0 mi WNW 4.6 mph - N/A   Clear
3:41 AM 66.2 °F - 57.2 °F 73% 29.77 in 10.0 mi NW 5.8 mph - N/A   Clear
3:53 AM 66.2 °F - 57.2 °F 73% 29.76 in 10.0 mi NNW 4.6 mph - N/A   Clear
4:13 AM 66.2 °F - 57.2 °F 73% 29.76 in 10.0 mi NNW 5.8 mph - N/A   Clear
4:21 AM 66.2 °F - 57.2 °F 73% 29.76 in 10.0 mi NNW 6.9 mph - N/A   Clear
4:33 AM 66.2 °F - 57.2 °F 73% 29.76 in 10.0 mi NNW 4.6 mph - N/A   Clear
4:54 AM 66.2 °F - 57.2 °F 73% 29.76 in 10.0 mi NNW 3.5 mph - N/A   Clear
5:01 AM 64.4 °F - 57.2 °F 77% 29.77 in 10.0 mi NNW 3.5 mph - N/A   Clear
5:13 AM 64.4 °F - 57.2 °F 77% 29.77 in 10.0 mi Calm Calm - N/A   Clear
5:21 AM 64.4 °F - 57.2 °F 77% 29.77 in 10.0 mi WNW 3.5 mph - N/A   Clear
5:33 AM 64.4 °F - 57.2 °F 77% 29.77 in 10.0 mi NW 3.5 mph - N/A   Clear
5:53 AM 64.4 °F - 57.2 °F 77% 29.78 in 10.0 mi Calm Calm - N/A   Clear
6:01 AM 64.4 °F - 57.2 °F 77% 29.78 in 10.0 mi NNW 3.5 mph - N/A   Clear
6:13 AM 64.4 °F - 57.2 °F 77% 29.78 in 10.0 mi NNW 4.6 mph - N/A   Clear
6:21 AM 64.4 °F - 57.2 °F 77% 29.78 in 10.0 mi NW 4.6 mph - N/A   Clear
6:33 AM 64.4 °F - 57.2 °F 77% 29.78 in 10.0 mi NNW 5.8 mph - N/A   Clear
6:41 AM 66.2 °F - 57.2 °F 73% 29.78 in 10.0 mi NNW 5.8 mph - N/A   Clear
6:53 AM 66.2 °F - 57.2 °F 73% 29.79 in 10.0 mi NNW 6.9 mph - N/A   Clear
7:01 AM 66.2 °F - 55.4 °F 68% 29.79 in 10.0 mi NNW 5.8 mph - N/A   Clear
7:13 AM 66.2 °F - 55.4 °F 68% 29.79 in 10.0 mi NNW 5.8 mph - N/A   Clear
7:21 AM 68.0 °F - 55.4 °F 64% 29.79 in 10.0 mi NNW 6.9 mph - N/A   Clear
7:33 AM 69.8 °F - 55.4 °F 60% 29.79 in 10.0 mi NNW 5.8 mph - N/A   Clear
7:41 AM 69.8 °F - 55.4 °F 60% 29.79 in 10.0 mi NNW 5.8 mph - N/A   Clear
7:54 AM 69.8 °F - 55.4 °F 60% 29.79 in 10.0 mi NNW 5.8 mph - N/A   Clear
8:13 AM 71.6 °F - 55.4 °F 57% 29.79 in 10.0 mi Calm Calm - N/A   Clear
8:21 AM 73.4 °F - 53.6 °F 50% 29.80 in 10.0 mi NNW 3.5 mph - N/A   Clear
8:33 AM 73.4 °F - 55.4 °F 53% 29.79 in 10.0 mi NW 3.5 mph - N/A   Clear
8:45 AM 75.2 °F - 53.6 °F 47% 29.79 in 10.0 mi NNW 4.6 mph - N/A   Clear
8:53 AM 75.2 °F - 53.6 °F 47% 29.80 in 10.0 mi NW 4.6 mph - N/A   Clear
9:13 AM 75.2 °F - 51.8 °F 44% 29.80 in 10.0 mi WNW 5.8 mph - N/A   Clear
9:33 AM 77.0 °F - 51.8 °F 41% 29.80 in 10.0 mi NW 4.6 mph - N/A   Clear
9:53 AM 78.8 °F - 51.8 °F 39% 29.81 in 10.0 mi Calm Calm - N/A   Clear
10:15 AM 80.6 °F - 51.8 °F 37% 29.82 in 10.0 mi Calm Calm - N/A   Clear
10:33 AM 80.6 °F - 48.2 °F 32% 29.82 in 10.0 mi NW 4.6 mph - N/A   Clear
10:53 AM 80.6 °F - 50.0 °F 34% 29.82 in 10.0 mi West 4.6 mph - N/A   Clear
11:13 AM 80.6 °F - 48.2 °F 32% 29.82 in 10.0 mi WNW 5.8 mph - N/A   Clear
11:33 AM 80.6 °F - 48.2 °F 32% 29.82 in 10.0 mi NNW 4.6 mph - N/A   Clear
11:53 AM 80.6 °F - 50.0 °F 34% 29.82 in 10.0 mi NNW 5.8 mph - N/A   Clear
12:21 PM 80.6 °F - 48.2 °F 32% 29.82 in 10.0 mi NNW 4.6 mph - N/A   Clear
12:33 PM 82.4 °F - 48.2 °F 30% 29.82 in 10.0 mi NNW 3.5 mph - N/A   Clear
1:01 PM 80.6 °F - 48.2 °F 32% 29.82 in 10.0 mi NNW 6.9 mph - N/A   Clear
1:13 PM 82.4 °F - 48.2 °F 30% 29.82 in 10.0 mi WNW 4.6 mph - N/A   Clear
1:21 PM 82.4 °F - 48.2 °F 30% 29.82 in 10.0 mi West 8.1 mph - N/A   Clear
1:33 PM 80.6 °F - 46.4 °F 30% 29.82 in 10.0 mi Calm Calm - N/A   Scattered Clouds
1:37 PM 80.6 °F - 48.2 °F 32% 29.82 in 10.0 mi NNW 4.6 mph - N/A   Clear
1:53 PM 82.4 °F - 46.4 °F 28% 29.82 in 10.0 mi NW 5.8 mph - N/A   Clear
2:13 PM 82.4 °F - 46.4 °F 28% 29.82 in 10.0 mi Calm Calm - N/A   Clear
2:33 PM 84.2 °F - 46.4 °F 27% 29.82 in 10.0 mi West 4.6 mph - N/A   Clear
2:53 PM 82.4 °F - 46.4 °F 28% 29.82 in 10.0 mi West 4.6 mph - N/A   Clear
3:13 PM 82.4 °F - 46.4 °F 28% 29.82 in 10.0 mi NNW 5.8 mph - N/A   Clear
3:53 PM 82.4 °F - 46.4 °F 28% 29.82 in 10.0 mi West 4.6 mph - N/A   Clear
4:13 PM 82.4 °F - 44.6 °F 26% 29.82 in 10.0 mi West 4.6 mph - N/A   Clear
4:33 PM 82.4 °F - 46.4 °F 28% 29.82 in 10.0 mi NNW 4.6 mph - N/A   Clear
4:53 PM 82.4 °F - 46.4 °F 28% 29.82 in 10.0 mi NNW 4.6 mph - N/A   Clear
5:13 PM 82.4 °F - 44.6 °F 26% 29.82 in 10.0 mi West 4.6 mph - N/A   Clear
5:53 PM 82.4 °F - 46.4 °F 28% 29.82 in 10.0 mi West 5.8 mph - N/A   Clear
6:13 PM 80.6 °F - 48.2 °F 32% 29.82 in 10.0 mi Calm Calm - N/A   Clear
6:33 PM 80.6 °F 80.3 °F 53.6 °F 39% 29.83 in 10.0 mi ENE 6.9 mph - N/A   Clear
6:53 PM 73.4 °F - 59.0 °F 61% 29.84 in 10.0 mi East 8.1 mph 17.3 mph N/A   Scattered Clouds
7:13 PM 69.8 °F - 59.0 °F 68% 29.85 in 10.0 mi ENE 9.2 mph - N/A   Scattered Clouds
7:33 PM 68.0 °F - 59.0 °F 73% 29.86 in 10.0 mi NE 10.4 mph 16.1 mph N/A   Scattered Clouds
7:53 PM 66.2 °F - 60.8 °F 83% 29.87 in 10.0 mi ENE 9.2 mph - N/A   Mostly Cloudy
8:13 PM 64.4 °F - 60.8 °F 88% 29.88 in 10.0 mi NE 11.5 mph - N/A   Overcast
8:34 PM 64.4 °F - 60.8 °F 88% 29.89 in 10.0 mi ENE 9.2 mph - N/A   Overcast
8:53 PM 64.4 °F - 59.0 °F 83% 29.89 in 10.0 mi ENE 8.1 mph 16.1 mph N/A   Overcast
9:14 PM 64.4 °F - 59.0 °F 83% 29.90 in 10.0 mi ENE 8.1 mph - N/A   Overcast
9:33 PM 64.4 °F - 57.2 °F 77% 29.90 in 10.0 mi ENE 4.6 mph - N/A   Mostly Cloudy
9:53 PM 64.4 °F - 57.2 °F 77% 29.90 in 10.0 mi ENE 4.6 mph - N/A   Mostly Cloudy
10:13 PM 64.4 °F - 59.0 °F 83% 29.91 in 10.0 mi NE 5.8 mph - N/A   Mostly Cloudy
10:33 PM 64.4 °F - 59.0 °F 83% 29.91 in 10.0 mi NE 4.6 mph - N/A   Overcast
10:53 PM 64.4 °F - 59.0 °F 83% 29.92 in 10.0 mi ENE 4.6 mph - N/A   Overcast
11:34 PM 64.4 °F - 59.0 °F 83% 29.92 in 10.0 mi East 4.6 mph - N/A   Mostly Cloudy
11:54 PM 64.4 °F - 57.2 °F 77% 29.93 in 10.0 mi ENE 8.1 mph - N/A   Overcast